Tracking 28052 objects as of 23-Sep-2023
HD Live streaming from Space Station
objects crossing your sky now

SL-8 R/B

Track SL-8 R/B now!
10-day predictions


NORAD ID: 5555
Int'l Code: 1971-086J
Perigee: 1,508.9 km
Apogee: 1,629.9 km
Inclination: 74.0 °
Period: 117.4 minutes
Semi major axis: 7940 km
RCS: 6.6314 m2 (large)
Launch date: October 13, 1971
Source: Commonwealth of Independent States (former USSR) (CIS)
Launch site: PLESETSK MISSILE AND SPACE COMPLEX (PKMTR)

Note: This is a ROCKET BODY
Your satellite tracking list
Your tracking list is empty




NASA's NSSDC Master Catalog

Two Line Element Set (TLE):
1 05555U 71086J   23265.27784539 -.00000044  00000-0 -25377-3 0  9992
2 05555  74.0189 209.2488 0076216 327.3012 149.2024 12.26982376326384
Source of the keplerian elements: AFSPC